Retour au catalogue

COSMOS 2251 DEB

ActifLEO
NORAD 35476·DEBRIS·🇷🇺 Russia

Lancé Jun 16, 1993 depuis Plesetsk Cosmodrome

Loading…

Prochains Passages (prochaines 24 heures)

TLE

FraisSource: Space-Track

Époque: Sep 13, 2026, 00:36 UTC

1 35476U 93036ALW 26256.02525383  .00006727  00000-0  85154-3 0  9993
2 35476  73.9732 239.2572 0013904 180.7686 238.1723 14.81925135919432

Suivez COSMOS 2251 DEB en temps réel avec AllMySat

Download on the App Store